Location: Newark
(42.8481°N, 0.4872°E)
Time: 00:11:30
(UTC+00:00)

Transit 2A - Pass Details

Date: 28 October 2020
Orbit: 595 x 963 km, 66.7° (Epoch: 03 December)

Event Time Altitude Azimuth Distance (km) Brightness Sun altitude
Rises 01:32:07 0° 222° (SW) 3,613 - -52.0°
Reaches altitude 10° 01:34:42 10° 227° (SW) 2,686 - -51.7°
Maximum altitude 01:40:57 57° 305° (NW) 1,117 - -50.8°
Drops below altitude 10° 01:47:08 10° 24° (NNE) 2,654 - -49.9°
Exits shadow 01:47:37 - 25° (NNE) 2,825 9.4 -49.9°
Sets 01:49:41 0° 29° (NNE) 3,566 10.0 -49.6°
